| time (UTC) | temp C | wind direction | speed KPH | gust KPH | rain 1hr cm | rain 24hr cm | rain mn cm | humidity % | barometer mb |
| 20260831054526 | 23 | 315 | 0.0 | 3.2 | 0.00 | 0.00 | 0.00 | 57 | 1028.5 |
| 20260831053026 | 23 | 150 | 0.0 | 8.0 | 0.00 | 0.00 | 0.00 | 57 | 1028.5 |
| 20260831051537 | 23 | 88 | 0.0 | 3.2 | 0.00 | 0.00 | 0.00 | 52 | 1028.4 |
| 20260831050024 | 23 | 66 | 0.0 | 4.8 | 0.00 | 0.00 | 0.00 | 54 | 1028.5 |
| 20260831044518 | 23 | 15 | 0.0 | 4.8 | 0.00 | 0.00 | 0.00 | 55 | 1028.5 |
| 20260831043141 | 22 | 335 | 0.0 | 6.4 | 0.00 | 0.00 | 0.00 | 59 | 1028.7 |
| 20260831041555 | 23 | 317 | 1.6 | 6.4 | 0.00 | 0.00 | 0.00 | 59 | 1028.8 |
| 20260831040055 | 23 | 306 | 1.6 | 4.8 | 0.00 | 0.00 | 0.00 | 60 | 1028.9 |
| 20260831034549 | 23 | 22 | 0.0 | 6.4 | 0.00 | 0.00 | 0.00 | 59 | 1028.9 |
| 20260831033049 | 23 | 138 | 0.0 | 4.8 | 0.00 | 0.00 | 0.00 | 59 | 1028.9 |
| 20260831031546 | 23 | 211 | 0.0 | 6.4 | 0.00 | 0.00 | 0.00 | 59 | 1029.0 |
| 20260831030039 | 23 | 360 | 0.0 | 4.8 | 0.00 | 0.00 | 0.00 | 60 | 1029.3 |
| 20260831024537 | 23 | 15 | 0.0 | 4.8 | 0.00 | 0.00 | 0.00 | 57 | 1029.3 |
| 20260831023039 | 23 | 42 | 0.0 | 4.8 | 0.00 | 0.00 | 0.00 | 55 | 1029.3 |
| 20260831021548 | 23 | 355 | 0.0 | 3.2 | 0.00 | 0.00 | 0.00 | 53 | 1029.8 |
| 20260831020027 | 23 | 5 | 0.0 | 3.2 | 0.00 | 0.00 | 0.00 | 52 | 1030.0 |
| 20260831014523 | 22 | 341 | 0.0 | 3.2 | 0.00 | 0.00 | 0.00 | 53 | 1030.3 |
| 20260831013020 | 22 | 95 | 0.0 | 3.2 | 0.00 | 0.00 | 0.00 | 52 | 1030.6 |
| 20260831011517 | 22 | 155 | 0.0 | 4.8 | 0.00 | 0.00 | 0.00 | 55 | 1030.6 |
| 20260830181508 | 10 | 250 | 0.0 | 0.0 | 0.00 | 0.00 | 0.00 | 94 | 1029.7 |
| 20260830180007 | 10 | 252 | 0.0 | 0.0 | 0.00 | 0.00 | 0.00 | 95 | 1029.7 |
| 20260830174512 | 10 | 300 | 0.0 | 0.0 | 0.00 | 0.00 | 0.00 | 95 | 1029.7 |
| 20260830173003 | 10 | 300 | 0.0 | 0.0 | 0.00 | 0.00 | 0.00 | 94 | 1029.9 |
| 20260830171605 | 10 | 300 | 0.0 | 0.0 | 0.00 | 0.00 | 0.00 | 94 | 1030.0 |
| 20260830170059 | 10 | 300 | 0.0 | 0.0 | 0.00 | 0.00 | 0.00 | 94 | 1030.1 |
| 20260830164557 | 10 | 300 | 0.0 | 0.0 | 0.00 | 0.00 | 0.00 | 94 | 1030.1 |
| 20260830163103 | 10 | 300 | 0.0 | 0.0 | 0.00 | 0.00 | 0.00 | 94 | 1030.4 |
| 20260830161616 | 10 | 300 | 0.0 | 0.0 | 0.00 | 0.00 | 0.00 | 94 | 1030.3 |
| 20260830160052 | 10 | 300 | 0.0 | 0.0 | 0.00 | 0.00 | 0.00 | 93 | 1030.4 |
| 20260830154552 | 11 | 300 | 0.0 | 0.0 | 0.00 | 0.00 | 0.00 | 93 | 1030.4 |
| 20260830153051 | 10 | 300 | 0.0 | 0.0 | 0.00 | 0.00 | 0.00 | 93 | 1030.6 |
| 20260830151549 | 11 | 300 | 0.0 | 0.0 | 0.00 | 0.00 | 0.00 | 93 | 1030.5 |
| 20260830150050 | 11 | 300 | 0.0 | 0.0 | 0.00 | 0.00 | 0.00 | 93 | 1030.5 |
| 20260830144547 | 11 | 300 | 0.0 | 0.0 | 0.00 | 0.00 | 0.00 | 93 | 1030.6 |
| 20260830143049 | 11 | 300 | 0.0 | 0.0 | 0.00 | 0.00 | 0.00 | 93 | 1030.5 |
| 20260830141544 | 11 | 300 | 0.0 | 0.0 | 0.00 | 0.00 | 0.00 | 92 | 1030.6 |
| 20260830140040 | 11 | 300 | 0.0 | 0.0 | 0.00 | 0.00 | 0.00 | 92 | 1030.5 |
| 20260830134548 | 11 | 300 | 0.0 | 0.0 | 0.00 | 0.00 | 0.00 | 92 | 1030.6 |
| 20260830133040 | 11 | 300 | 0.0 | 0.0 | 0.00 | 0.00 | 0.00 | 91 | 1030.6 |
| 20260830131552 | 11 | 300 | 0.0 | 0.0 | 0.00 | 0.00 | 0.00 | 91 | 1030.7 |
| 20260830130038 | 11 | 300 | 0.0 | 0.0 | 0.00 | 0.00 | 0.00 | 91 | 1030.7 |
| 20260830124539 | 12 | 323 | 0.0 | 0.0 | 0.00 | 0.00 | 0.00 | 91 | 1030.9 |
| 20260830123038 | 12 | 323 | 0.0 | 0.0 | 0.00 | 0.00 | 0.00 | 91 | 1030.9 |
| 20260830121537 | 12 | 329 | 0.0 | 0.0 | 0.00 | 0.00 | 0.00 | 91 | 1031.0 |
| 20260830120037 | 11 | 329 | 0.0 | 0.0 | 0.00 | 0.00 | 0.00 | 90 | 1030.6 |
| 20260830114546 | 11 | 329 | 0.0 | 0.0 | 0.00 | 0.00 | 0.00 | 89 | 1030.4 |
| 20260830113040 | 12 | 329 | 0.0 | 0.0 | 0.00 | 0.00 | 0.00 | 88 | 1030.3 |
| 20260830111535 | 12 | 329 | 0.0 | 0.0 | 0.00 | 0.00 | 0.00 | 88 | 1030.3 |
| 20260830110041 | 12 | 329 | 0.0 | 0.0 | 0.00 | 0.00 | 0.00 | 87 | 1030.3 |
| 20260830104535 | 12 | 329 | 0.0 | 0.0 | 0.00 | 0.00 | 0.00 | 86 | 1030.4 |
| 20260830103034 | 13 | 329 | 0.0 | 0.0 | 0.00 | 0.00 | 0.00 | 86 | 1030.2 |
| 20260830101533 | 13 | 329 | 0.0 | 0.0 | 0.00 | 0.00 | 0.00 | 86 | 1030.1 |
| 20260830100033 | 13 | 329 | 0.0 | 0.0 | 0.00 | 0.00 | 0.00 | 85 | 1029.8 |
| 20260830094533 | 13 | 329 | 0.0 | 0.0 | 0.00 | 0.00 | 0.00 | 83 | 1029.8 |
| 20260830093037 | 14 | 329 | 0.0 | 0.0 | 0.00 | 0.00 | 0.00 | 81 | 1029.7 |
| 20260830091531 | 14 | 329 | 0.0 | 0.0 | 0.00 | 0.00 | 0.00 | 81 | 1029.7 |
| 20260830090031 | 15 | 329 | 0.0 | 0.0 | 0.00 | 0.00 | 0.00 | 78 | 1029.6 |
| 20260830084530 | 15 | 329 | 0.0 | 0.0 | 0.00 | 0.00 | 0.00 | 77 | 1029.6 |
| 20260830083031 | 15 | 329 | 0.0 | 0.0 | 0.00 | 0.00 | 0.00 | 74 | 1029.3 |
| 20260830081534 | 16 | 329 | 0.0 | 0.0 | 0.00 | 0.00 | 0.00 | 72 | 1029.1 |
| 20260830080029 | 16 | 329 | 0.0 | 0.0 | 0.00 | 0.00 | 0.00 | 71 | 1028.9 |
| 20260830074547 | 17 | 329 | 0.0 | 0.0 | 0.00 | 0.00 | 0.00 | 70 | 1028.9 |
| 20260830073029 | 17 | 313 | 0.0 | 0.0 | 0.00 | 0.00 | 0.00 | 67 | 1028.9 |
| 20260830071527 | 18 | 313 | 0.0 | 0.0 | 0.00 | 0.00 | 0.00 | 66 | 1028.8 |
| 20260830070026 | 19 | 313 | 0.0 | 0.0 | 0.00 | 0.00 | 0.00 | 65 | 1028.7 |
| 20260830064530 | 20 | 313 | 0.0 | 3.2 | 0.00 | 0.00 | 0.00 | 63 | 1028.4 |
| 20260830063026 | 20 | 346 | 0.0 | 1.6 | 0.00 | 0.00 | 0.00 | 61 | 1028.8 |
| 20260830061527 | 21 | 311 | 0.0 | 3.2 | 0.00 | 0.00 | 0.00 | 60 | 1028.6 |
| 20260830060020 | 21 | 319 | 0.0 | 3.2 | 0.00 | 0.00 | 0.00 | 54 | 1028.8 |